Other Public Products
Issued by NWS Grand Forks, ND

Home | Current Version | Previous Version | Graphics & Text | Print | Product List | Glossary On
Versions: 1 2 3 4 5 6 7 8 9 10 11 12 13 14 15 16 17 18 19 20 21 22 23 24 25 26 27 28 29 30 31 32 33 34 35 36 37 38 39 40 41 42 43 44 45 46 47 48 49 50
000
FPUS83 KFGF 010910
OPUFGF
PRAIRIE TO PINES WEATHER ROUNDUP
NATIONAL WEATHER SERVICE EASTERN NORTH DAKOTA/GRAND FORKS ND
400 AM CDT TUE SEP 01 2015

 **SATELLITE DATA USED TO AUGMENT SKY COVER AT AUTOMATED STATIONS**
 *****  WEATHER ACROSS EASTERN NORTH DAKOTA  *****

CITY           SKY/WX    TMP DP  RH WIND       PRES   REMARKS
GRAND FORKS    PTCLDY    54  51  90 S3        29.85S
GRAND FORKS AF PTCLDY    53  49  88 SW3       29.85F
GRAND CITY NWS   N/A     55 N/A N/A W1          N/A
BUXTON         NOT AVBL
DEVILS LAKE    CLEAR     55  45  67 SE3       29.85S
FARGO          PTCLDY    58  55  90 S5        29.87S
WAHPETON ARPT  CLOUDY    59  55  88 CALM      29.90R VSB 1/4
$$

 *****  WEATHER ACROSS CENTRAL AND WESTERN NORTH DAKOTA  *****

CITY           SKY/WX    TMP DP  RH WIND       PRES   REMARKS
JAMESTOWN      MOCLDY    56  53  90 S5        29.89R
BISMARCK       CLEAR     55  51  86 NE7       29.88S
MINOT          CLEAR     60  48  64 SW10      29.83F
MINOT AFB      NOT AVBL
GARRISON         N/A     53  46  77 CALM      29.85F
WILLISTON      CLEAR     49  44  83 SW5       29.84S
DICKINSON      CLEAR     54  47  77 S9        29.86S
HETTINGER      PTCLDY    58  50  75 CALM      29.90F
$$

 *****  OTHER OBSERVATIONS NORTHEAST NORTH DAKOTA  *****

CITY           SKY/WX    TMP DP  RH WIND       PRES   REMARKS
WALHALLA       FAIR      55  50  82 MISG      29.83S
LANGDON        FAIR      48  46  93 S3        29.86S
CAVALIER       FAIR      54  48  82 SW3       29.83S
GRAFTON        FAIR      52  52 100 S5        29.85S
CANDO          NOT AVBL
FORT TOTTEN      N/A     56  45  66 SE5       29.95S
ROLLA          FAIR      48  45  87 SW6       29.86R
RUGBY          FAIR      48  46  93 CALM      29.85S
 ***** THE ABOVE OBSERVATIONS ARE NON NWS ARE NOT QUALITY
        CONTROLLED AND MAY MIS-REPORT RAIN FOR SNOW...
$$

 *****  OTHER OBSERVATIONS SOUTHEAST NORTH DAKOTA *****

CITY           SKY/WX    TMP DP  RH WIND       PRES   REMARKS
COOPERSTOWN    NOT AVBL
VALLEY CITY    FAIR      55  55 100 SW5       29.89S
OAKES            N/A     57  57 100 E3        29.90R
GWINNER          N/A     61  61 100 S5        29.90S
SHEYENNE NWR     N/A     56  56  99 CALM      29.95S
BUFFALO        NOT AVBL
WYNDMERE         N/A     59  59 100 SW2         N/A
 ***** THE ABOVE OBSERVATIONS ARE NON NWS ARE NOT QUALITY
       CONTROLLED AND MAY MIS-REPORT RAIN FOR SNOW...
$$

  *****  WEATHER ACROSS NORTHERN MINNESOTA  *****

CITY           SKY/WX    TMP DP  RH WIND       PRES   REMARKS
FLAG ISLAND    PTCLDY    61  54  77 SW12      29.82S
WARROAD        MOCLDY    55  52  88 S6        29.86R
ROSEAU         MOCLDY    54  48  82 S3        29.85S
HALLOCK        CLEAR     52  46  82 CALM      29.84R
THF RVR FALLS  PTCLDY   N/A N/A N/A CALM      29.87R
HALSTAD        NOT AVBL
FOSSTON        PTCLDY    57  55  94 S5        29.89S FOG
BAUDETTE       PTCLDY    54  52  93 S3        29.86R
WASKISH        FOG       55  54  94 CALM      29.88S VSB 3/4
CROOKSTON      PTCLDY    54  52  94 S5        29.87S
$$
  *****  WEATHER ACROSS CENTRAL AND WEST MINNESOTA  *****

CITY           SKY/WX    TMP DP  RH WIND       PRES   REMARKS
BEMIDJI        FOG       55  54  99 CALM      29.90R VSB 1/4
PARK RAPIDS    FOG       61  60  97 CALM      29.91R VSB 3/4
WADENA         FOG       63  61  94 CALM      29.90R VSB 1/4
DETROIT LAKES  FOG       63  61  94 CALM      29.91S VSB 1/4
MOORHEAD       PTCLDY    57  57 100 CALM      29.89R FOG
FERGUS FALLS   MOCLDY    64  64 100 NE3       29.89R
ELBOW LAKE     FAIR      66  66  98 CALM      29.89S
MORRIS MN      MOCLDY    66  64  94 CALM      29.89R FOG
STAPLES        MOCLDY    63  63 100 CALM      29.90R FOG
WHEATON        MOCLDY    61  59  94 CALM      29.91S FOG
$$
  *****  WEATHER ELSEWHERE ACROSS MINNESOTA  *****

CITY           SKY/WX    TMP DP  RH WIND       PRES   REMARKS
DULUTH         CLOUDY    71  68  90 SW7       29.89S
INTRNTL FALLS  PTCLDY    55  55 100 SW3       29.87R FOG
ELY            CLOUDY    70  66  88 CALM      29.89S FOG
CLOQUET        CLOUDY    72  66  83 SW5       29.90R
BRAINERD       FOG       67  66  97 CALM      29.90R VSB 3/4
HIBBING        FOG       62  62 100 CALM      29.89S VSB 1/4
ALEXANDRIA     MOCLDY    66  65  96 N3        29.92R
SAINT CLOUD    MOCLDY    69  67  93 S5        29.88S
MINNEAPOLIS    MOCLDY    74  67  78 S5        29.91S
$$

  *****  WEATHER ACROSS SOUTH DAKOTA  *****

CITY           SKY/WX    TMP DP  RH WIND       PRES   REMARKS
SIOUX FALLS    MOCLDY    71  67  87 SE3       29.89F
BROOKINGS      CLOUDY    70  66  88 SE5       29.91F
WATERTOWN      CLOUDY    67  65  93 CALM      29.90R
HURON          CLOUDY    64  63  96 NW6       29.87S
SISSETON         N/A     62  61  96 CALM      29.89R
ABERDEEN       CLOUDY    59  58  96 NE5       29.88F
MITCHELL       CLOUDY    66  65  96 CALM      29.88S
PIERRE         MOCLDY    59  57  93 NE5       29.88F
MOBRIDGE       PTCLDY    57  56  96 E3        29.87S
RAPID CITY     CLEAR     56  55  97 SE9       29.89F
$$

  *****  SOME WEATHER IN NEARBY STATES *****

CITY           SKY/WX    TMP DP  RH WIND       PRES   REMARKS
GLASGOW MT     PTCLDY    55  45  68 E8        29.80F
GREAT FALLS MT MOCLDY    59  39  47 SW10      29.84F
CHEYENNE WY    PTCLDY    54  46  74 SW10      30.13F
SCOTTSBLUFF NE PTCLDY    58  54  86 CALM      29.99F
OMAHA NE       CLEAR     71  68  90 S9        29.93S
DES MOINES IA  CLEAR     72  67  84 S9        29.95S
DAVENPORT IA   MOCLDY    73  70  90 S6        30.00S
CHICAGO IL     PTCLDY    70  68  93 CALM      30.03S
EAU CLAIRE WI  PTCLDY    70  68  93 S3        29.94R
LA CROSSE WI   CLEAR     70  69  97 SE3       29.94S FOG
$$

  *****  SOME NATIONAL WEATHER *****

CITY           SKY/WX    TMP DP  RH WIND       PRES   REMARKS
LA GUARDIA NY  PTCLDY    77  67  71 CALM      29.99F
RALEIGH NC     FOG       70  68  93 CALM      30.07F VSB 1/16
ATLANTA GA     CLEAR     70  66  87 CALM      30.11S
NEW ORLEANS LA MOCLDY    77  71  82 CALM      30.03F
OKLAHOMA CITY  CLEAR     71  64  78 SE10      30.01F
ALBUQUERQUE NM CLOUDY    72  47  40 S3        30.16F
SALT LAKE CITY MOCLDY    74  43  32 S10       29.95F
LOS ANGELES CA MOCLDY    71  65  81 CALM      29.90F
BOISE ID       CLEAR     63  38  39 CALM      29.90S
SEATTLE WA     CLOUDY    63  53  70 S9        29.91F
$$

*** WEATHER ACROSS MANITOBA...SASKATCHEWAN AND ONTARIO ***
                ***ONTARIO***

CITY           SKY/WX    TMP DP  RH WIND       PRES   REMARKS
GERALDTON      CLOUDY    66  64  94 W6        29.83R FOG
THUNDER BAY    CLOUDY    63  61  94 CALM      29.86R
SIOUX LOOKOUT  PTCLDY    63  61  94 SW5       29.82S
TORONTO        CLOUDY    66  64  94 NW3       30.06S FOG
BIG TROUT LK   CLOUDY    63  61  94 W9G20     29.61R
PICKLE LAKE    NOT AVBL
DRYDEN         CLEAR     61  59  94 SW7       29.83R FOG
KENORA         PTCLDY    59  54  82 SW6       29.82F
$$
                *** MANITOBA***

CITY           SKY/WX    TMP DP  RH WIND       PRES   REMARKS
BRANDON        PTCLDY    54  46  76 SW5       29.81S
DAUPHIN        CLEAR     54  46  76 W8        29.73S
ISLAND LAKE    NOT AVBL
PILOT MOUND      N/A     48  43  81 S7          N/A
THE PAS        PTCLDY    55  54  94 CALM      29.64R
THOMPSON       DRZL/FOG  55  54  94 CALM      29.61R VSB 1/4
WINNIPEG       PTCLDY    57  46  67 SW10      29.80R
LYNN LAKE      FOG       45  45 100 MISG      29.62R VSB 3/8
CHURCHILL      CLOUDY    46  45  93 E3        29.66R
$$
                ***SASKATCHEWAN***

CITY           SKY/WX    TMP DP  RH WIND       PRES   REMARKS
ESTEVAN        PTCLDY    52  41  66 S7        29.81S
KINDERSLEY     MOCLDY    52  41  66 S8        29.64F
LLOYDMINSTER   CLOUDY    57  43  58 SE7G17    29.56F
PRINCE ALBERT  CLOUDY    46  45  93 E3        29.64R
REGINA         PTCLDY    52  46  82 SW9       29.75S
YORKTON        CLEAR     54  46  76 S8        29.72S



USA.gov is the U.S. government's official web portal to all federal, state and local government web resources and services.